Time,TemperatureF,DewpointF,PressureIn,WindDirection,WindDirectionDegrees,WindSpeedMPH,WindSpeedGustMPH,Humidity,HourlyPrecipIn,Conditions,Clouds,dailyrainin,SoftwareType,DateUTC
2013-06-07 00:03:00,74.0,72.0,29.83,SW,229,2.0,7.0,94,0.00,,,1.97,,2013-06-07 04:03:00,
2013-06-07 00:12:00,74.0,72.0,29.83,SW,229,2.0,7.0,94,0.00,,,1.97,,2013-06-07 04:12:00,
2013-06-07 00:23:00,73.0,71.0,29.83,SW,233,2.0,7.0,94,0.00,,,1.97,,2013-06-07 04:23:00,
2013-06-07 00:33:00,73.0,71.0,29.82,SSW,193,2.0,6.0,95,0.00,,,1.96,,2013-06-07 04:33:00,
2013-06-07 00:42:00,73.0,71.0,29.82,SSW,193,2.0,6.0,95,0.00,,,1.96,,2013-06-07 04:42:00,
2013-06-07 00:53:00,73.0,71.0,29.82,SSW,204,1.0,5.0,95,0.00,,,1.96,,2013-06-07 04:53:00,
2013-06-07 01:03:00,72.0,71.0,29.81,SW,218,3.0,8.0,96,0.00,,,1.96,,2013-06-07 05:03:00,
2013-06-07 01:12:00,72.0,71.0,29.81,SW,218,3.0,8.0,96,0.00,,,1.96,,2013-06-07 05:12:00,
2013-06-07 01:22:00,72.0,71.0,29.81,SW,222,1.0,6.0,96,0.00,,,1.96,,2013-06-07 05:22:00,
2013-06-07 01:32:00,72.0,71.0,29.81,ESE,113,1.0,4.0,97,0.00,,,1.95,,2013-06-07 05:32:00,
2013-06-07 01:42:00,72.0,71.0,29.81,ESE,113,1.0,4.0,97,0.00,,,1.95,,2013-06-07 05:42:00,
2013-06-07 01:52:00,72.0,71.0,29.81,WSW,248,1.0,4.0,97,0.00,,,1.95,,2013-06-07 05:52:00,
2013-06-07 02:02:00,72.0,71.0,29.81,SW,225,1.0,4.0,97,0.00,,,1.95,,2013-06-07 06:02:00,
2013-06-07 02:12:00,72.0,71.0,29.81,SW,225,1.0,4.0,97,0.00,,,1.95,,2013-06-07 06:12:00,
2013-06-07 02:22:00,72.0,71.0,29.81,SSW,204,2.0,5.0,97,0.00,,,1.95,,2013-06-07 06:22:00,
2013-06-07 02:32:00,72.0,71.0,29.80,SSW,193,2.0,6.0,97,0.00,,,1.90,,2013-06-07 06:32:00,
2013-06-07 02:42:00,72.0,71.0,29.80,SSW,193,2.0,6.0,97,0.00,,,1.90,,2013-06-07 06:42:00,
2013-06-07 02:52:00,73.0,72.0,29.80,SW,221,2.0,7.0,97,0.00,,,1.90,,2013-06-07 06:52:00,
2013-06-07 03:02:00,73.0,72.0,29.81,SW,219,1.0,5.0,97,0.00,,,1.90,,2013-06-07 07:02:00,
2013-06-07 03:12:00,73.0,72.0,29.81,SW,219,1.0,5.0,97,0.00,,,1.90,,2013-06-07 07:12:00,
2013-06-07 03:22:00,73.0,72.0,29.81,WSW,241,2.0,6.0,97,0.00,,,1.90,,2013-06-07 07:22:00,
2013-06-07 03:32:00,73.0,72.0,29.82,SE,143,1.0,6.0,97,0.00,,,1.89,,2013-06-07 07:32:00,
2013-06-07 03:42:00,73.0,72.0,29.82,SE,143,1.0,6.0,97,0.00,,,1.89,,2013-06-07 07:42:00,
2013-06-07 03:52:00,73.0,72.0,29.81,SSW,194,2.0,7.0,97,0.00,,,1.89,,2013-06-07 07:52:00,
2013-06-07 04:02:00,73.0,72.0,29.81,South,181,1.0,7.0,97,0.00,,,1.89,,2013-06-07 08:02:00,
2013-06-07 04:12:00,73.0,72.0,29.81,South,181,1.0,7.0,97,0.00,,,1.89,,2013-06-07 08:12:00,
2013-06-07 04:22:00,73.0,72.0,29.81,SSW,210,0.0,6.0,97,0.00,,,1.89,,2013-06-07 08:22:00,
2013-06-07 04:32:00,73.0,72.0,29.81,South,172,2.0,8.0,97,0.00,,,1.88,,2013-06-07 08:32:00,
2013-06-07 04:43:00,73.0,72.0,29.81,South,172,2.0,8.0,97,0.00,,,1.88,,2013-06-07 08:43:00,
2013-06-07 04:52:00,73.0,72.0,29.82,ESE,117,1.0,5.0,97,0.00,,,1.88,,2013-06-07 08:52:00,
2013-06-07 05:02:00,73.0,72.0,29.82,South,190,2.0,7.0,97,0.00,,,1.88,,2013-06-07 09:02:00,
2013-06-07 05:12:00,73.0,72.0,29.82,South,190,2.0,7.0,97,0.00,,,1.88,,2013-06-07 09:12:00,
2013-06-07 05:22:00,73.0,72.0,29.82,South,172,1.0,7.0,97,0.00,,,1.88,,2013-06-07 09:22:00,
2013-06-07 05:32:00,73.0,72.0,29.83,SW,225,2.0,5.0,98,0.00,,,1.85,,2013-06-07 09:32:00,
2013-06-07 05:43:00,73.0,72.0,29.83,SW,225,2.0,5.0,98,0.00,,,1.85,,2013-06-07 09:43:00,
2013-06-07 05:53:00,74.0,73.0,29.84,SW,222,2.0,8.0,98,0.00,,,1.85,,2013-06-07 09:53:00,
2013-06-07 06:03:00,74.0,73.0,29.85,SW,217,0.0,6.0,98,0.00,,,1.85,,2013-06-07 10:03:00,
2013-06-07 06:13:00,74.0,73.0,29.85,SW,217,0.0,6.0,98,0.00,,,1.85,,2013-06-07 10:13:00,
2013-06-07 07:32:00,74.0,73.0,29.86,SW,231,0.0,3.0,98,0.00,,,1.85,,2013-06-07 11:32:00,
2013-06-07 07:42:00,74.0,73.0,29.86,SW,231,0.0,3.0,98,0.00,,,1.85,,2013-06-07 11:42:00,
2013-06-07 07:52:00,75.0,74.0,29.87,WSW,252,0.0,5.0,98,0.00,,,1.85,,2013-06-07 11:52:00,
2013-06-07 08:02:00,75.0,74.0,29.87,SSW,204,0.0,4.0,98,0.00,,,1.85,,2013-06-07 12:02:00,
2013-06-07 08:13:00,75.0,74.0,29.87,SSW,204,0.0,4.0,98,0.00,,,1.85,,2013-06-07 12:13:00,
2013-06-07 08:22:00,76.0,75.0,29.88,WSW,240,1.0,5.0,98,0.00,,,1.85,,2013-06-07 12:22:00,
2013-06-07 08:32:00,76.0,75.0,29.88,SW,233,2.0,6.0,97,0.00,,,1.85,,2013-06-07 12:32:00,
2013-06-07 08:42:00,76.0,75.0,29.88,SW,233,2.0,6.0,97,0.00,,,1.85,,2013-06-07 12:42:00,
2013-06-07 08:52:00,76.0,75.0,29.88,West,262,2.0,8.0,97,0.00,,,1.85,,2013-06-07 12:52:00,
2013-06-07 09:02:00,77.0,76.0,29.88,WSW,245,1.0,4.0,96,0.00,,,1.85,,2013-06-07 13:02:00,
2013-06-07 09:13:00,77.0,76.0,29.88,WSW,245,1.0,4.0,96,0.00,,,1.85,,2013-06-07 13:13:00,
2013-06-07 09:22:00,77.0,75.0,29.88,WSW,250,4.0,8.0,94,0.00,,,1.85,,2013-06-07 13:22:00,
2013-06-07 09:32:00,78.0,76.0,29.89,WSW,246,5.0,9.0,93,0.00,,,1.85,,2013-06-07 13:32:00,
2013-06-07 09:43:00,78.0,76.0,29.89,WSW,246,5.0,9.0,93,0.00,,,1.85,,2013-06-07 13:43:00,
2013-06-07 09:52:00,79.0,76.0,29.89,WSW,248,3.0,8.0,91,0.00,,,1.85,,2013-06-07 13:52:00,
2013-06-07 10:03:00,81.0,76.0,29.90,WSW,239,5.0,10.0,85,0.00,,,1.85,,2013-06-07 14:03:00,
2013-06-07 10:13:00,81.0,76.0,29.90,WSW,239,5.0,10.0,85,0.00,,,1.85,,2013-06-07 14:13:00,
2013-06-07 10:23:00,81.0,76.0,29.91,SSW,205,4.0,10.0,84,0.00,,,1.85,,2013-06-07 14:23:00,
2013-06-07 10:33:00,81.0,75.0,29.91,West,262,6.0,10.0,83,0.00,,,1.85,,2013-06-07 14:33:00,
2013-06-07 10:42:00,81.0,75.0,29.91,West,262,6.0,10.0,83,0.00,,,1.85,,2013-06-07 14:42:00,
2013-06-07 10:52:00,82.0,76.0,29.92,WSW,243,5.0,10.0,81,0.00,,,1.85,,2013-06-07 14:52:00,
2013-06-07 11:03:00,82.0,76.0,29.92,SSW,205,7.0,11.0,81,0.00,,,1.85,,2013-06-07 15:03:00,
2013-06-07 11:12:00,82.0,76.0,29.92,SSW,205,7.0,11.0,81,0.00,,,1.85,,2013-06-07 15:12:00,
2013-06-07 11:23:00,83.0,76.0,29.92,SSW,208,4.0,12.0,79,0.00,,,1.85,,2013-06-07 15:23:00,
2013-06-07 11:33:00,83.0,76.0,29.92,West,268,3.0,9.0,79,0.00,,,1.85,,2013-06-07 15:33:00,
2013-06-07 11:43:00,83.0,76.0,29.92,West,268,3.0,9.0,79,0.00,,,1.85,,2013-06-07 15:43:00,
2013-06-07 11:53:00,83.0,76.0,29.92,WSW,238,6.0,12.0,80,0.00,,,1.85,,2013-06-07 15:53:00,
2013-06-07 12:03:00,83.0,76.0,29.92,WSW,238,5.0,12.0,80,0.00,,,1.85,,2013-06-07 16:03:00,
2013-06-07 12:13:00,83.0,76.0,29.92,WSW,238,5.0,12.0,80,0.00,,,1.85,,2013-06-07 16:13:00,
2013-06-07 12:22:00,83.0,76.0,29.92,WSW,243,4.0,15.0,79,0.00,,,1.85,,2013-06-07 16:22:00,
2013-06-07 12:33:00,85.0,76.0,29.92,WSW,255,5.0,12.0,75,0.00,,,1.85,,2013-06-07 16:33:00,
2013-06-07 12:43:00,85.0,76.0,29.92,WSW,255,5.0,12.0,75,0.00,,,1.85,,2013-06-07 16:43:00,
2013-06-07 12:52:00,85.0,76.0,29.92,SW,235,6.0,13.0,74,0.00,,,1.85,,2013-06-07 16:52:00,
2013-06-07 13:03:00,86.0,77.0,29.91,SW,225,6.0,17.0,74,0.00,,,1.85,,2013-06-07 17:03:00,
2013-06-07 13:13:00,86.0,77.0,29.91,SW,225,6.0,17.0,74,0.00,,,1.85,,2013-06-07 17:13:00,
2013-06-07 13:23:00,86.0,76.0,29.91,SW,219,9.0,20.0,73,0.00,,,1.85,,2013-06-07 17:23:00,
2013-06-07 13:32:00,86.0,75.0,29.91,WSW,246,10.0,19.0,70,0.00,,,1.75,,2013-06-07 17:32:00,
2013-06-07 13:43:00,86.0,75.0,29.91,WSW,246,10.0,19.0,70,0.00,,,1.75,,2013-06-07 17:43:00,
2013-06-07 13:52:00,87.0,76.0,29.90,SW,217,6.0,15.0,70,0.00,,,1.75,,2013-06-07 17:52:00,
2013-06-07 14:10:00,87.0,76.0,29.90,WSW,250,8.0,12.0,69,0.00,,,1.75,,2013-06-07 18:10:00,
2013-06-07 14:20:00,87.0,76.0,29.90,WSW,250,8.0,12.0,69,0.00,,,1.75,,2013-06-07 18:20:00,
2013-06-07 14:27:00,88.0,77.0,29.90,SW,229,5.0,14.0,69,0.00,,,1.75,,2013-06-07 18:27:00,
2013-06-07 14:37:00,87.0,76.0,29.90,SE,138,7.0,16.0,70,0.00,,,1.55,,2013-06-07 18:37:00,
2013-06-07 14:45:00,87.0,76.0,29.90,SE,138,7.0,16.0,70,0.00,,,1.55,,2013-06-07 18:45:00,
2013-06-07 14:56:00,88.0,77.0,29.90,WSW,252,7.0,16.0,70,0.00,,,1.55,,2013-06-07 18:56:00,
2013-06-07 15:08:00,87.0,75.0,29.89,South,186,5.0,11.0,68,0.00,,,1.55,,2013-06-07 19:08:00,
2013-06-07 15:16:00,87.0,75.0,29.89,South,186,5.0,11.0,68,0.00,,,1.55,,2013-06-07 19:16:00,
2013-06-07 15:29:00,87.0,76.0,29.89,WSW,245,4.0,12.0,69,0.00,,,1.55,,2013-06-07 19:29:00,
2013-06-07 15:38:00,87.0,75.0,29.89,WSW,248,5.0,16.0,68,0.00,,,1.04,,2013-06-07 19:38:00,
2013-06-07 15:55:00,88.0,75.0,29.89,SSW,200,5.0,9.0,66,0.00,,,1.04,,2013-06-07 19:55:00,
2013-06-07 16:08:00,88.0,75.0,29.89,SSW,200,3.0,11.0,66,0.00,,,1.04,,2013-06-07 20:08:00,
2013-06-07 16:17:00,88.0,75.0,29.89,SSW,200,3.0,11.0,66,0.00,,,1.04,,2013-06-07 20:17:00,
2013-06-07 16:27:00,88.0,77.0,29.89,SSW,203,4.0,14.0,70,0.00,,,1.04,,2013-06-07 20:27:00,
2013-06-07 16:49:00,87.0,76.0,29.89,SSW,204,2.0,12.0,71,0.00,,,0.47,,2013-06-07 20:49:00,
2013-06-07 16:56:00,88.0,77.0,29.89,South,191,4.0,11.0,69,0.00,,,0.47,,2013-06-07 20:56:00,
2013-06-07 17:07:00,89.0,77.0,29.89,SW,222,3.0,11.0,68,0.00,,,0.47,,2013-06-07 21:07:00,
2013-06-07 17:20:00,89.0,77.0,29.89,SW,222,3.0,11.0,68,0.00,,,0.47,,2013-06-07 21:20:00,
2013-06-07 17:29:00,88.0,76.0,29.89,SSW,211,2.0,9.0,68,0.00,,,0.47,,2013-06-07 21:29:00,
2013-06-07 17:46:00,83.0,77.0,29.89,East,89,2.0,8.0,82,0.00,,,0.18,,2013-06-07 21:46:00,
2013-06-07 17:56:00,82.0,77.0,29.89,SE,139,2.0,10.0,84,0.00,,,0.18,,2013-06-07 21:56:00,
2013-06-07 18:09:00,82.0,76.0,29.90,ESE,119,4.0,8.0,83,0.00,,,0.18,,2013-06-07 22:09:00,
2013-06-07 18:24:00,82.0,76.0,29.90,ESE,119,4.0,8.0,83,0.00,,,0.18,,2013-06-07 22:24:00,
2013-06-07 18:39:00,84.0,78.0,29.89,SE,142,1.0,6.0,81,0.00,,,0.00,,2013-06-07 22:39:00,
2013-06-07 18:48:00,84.0,78.0,29.89,SE,142,1.0,6.0,81,0.00,,,0.00,,2013-06-07 22:48:00,
2013-06-07 18:56:00,86.0,77.0,29.89,SW,236,2.0,6.0,75,0.00,,,0.00,,2013-06-07 22:56:00,
2013-06-07 19:10:00,86.0,77.0,29.89,West,277,1.0,9.0,74,0.00,,,0.00,,2013-06-07 23:10:00,
2013-06-07 19:20:00,86.0,77.0,29.89,West,277,1.0,9.0,74,0.00,,,0.00,,2013-06-07 23:20:00,
2013-06-07 19:31:00,86.0,76.0,29.90,SW,222,2.0,7.0,73,0.00,,,0.00,,2013-06-07 23:31:00,
2013-06-07 19:39:00,83.0,76.0,29.91,WSW,238,6.0,17.0,80,0.00,,,0.00,,2013-06-07 23:39:00,
2013-06-07 19:52:00,83.0,76.0,29.91,WSW,238,6.0,17.0,80,0.00,,,0.00,,2013-06-07 23:52:00,
2013-06-07 19:57:00,82.0,76.0,29.92,SSE,160,5.0,16.0,82,0.00,,,0.00,,2013-06-07 23:57:00,
2013-06-07 20:14:00,80.0,75.0,29.93,SSW,210,4.0,14.0,84,0.00,,,0.00,,2013-06-08 00:14:00,
2013-06-07 20:35:00,79.0,74.0,29.93,SW,235,2.0,10.0,85,0.00,,,0.00,,2013-06-08 00:35:00,
2013-06-07 20:45:00,79.0,74.0,29.93,SW,235,2.0,10.0,85,0.00,,,0.00,,2013-06-08 00:45:00,
2013-06-07 20:56:00,79.0,74.0,29.94,SSW,208,2.0,4.0,86,0.00,,,0.00,,2013-06-08 00:56:00,
2013-06-07 21:08:00,78.0,73.0,29.94,SW,232,4.0,14.0,85,0.00,,,0.00,,2013-06-08 01:08:00,
2013-06-07 21:20:00,78.0,73.0,29.94,SW,232,4.0,14.0,85,0.00,,,0.00,,2013-06-08 01:20:00,
2013-06-07 21:29:00,77.0,72.0,29.94,SSW,194,5.0,13.0,86,0.00,,,0.00,,2013-06-08 01:29:00,
2013-06-07 21:39:00,77.0,73.0,29.94,SSW,210,4.0,9.0,88,0.00,,,0.00,,2013-06-08 01:39:00,
2013-06-07 21:46:00,77.0,73.0,29.94,SSW,210,4.0,9.0,88,0.00,,,0.00,,2013-06-08 01:46:00,
2013-06-07 22:11:00,76.0,73.0,29.94,South,187,1.0,6.0,89,0.00,,,0.00,,2013-06-08 02:11:00,
2013-06-07 22:16:00,76.0,73.0,29.94,South,187,1.0,6.0,89,0.00,,,0.00,,2013-06-08 02:16:00,
2013-06-07 22:29:00,76.0,73.0,29.95,WSW,246,0.0,4.0,90,0.00,,,0.00,,2013-06-08 02:29:00,
2013-06-07 22:36:00,76.0,73.0,29.95,SSE,153,1.0,6.0,90,0.00,,,0.00,,2013-06-08 02:36:00,
2013-06-07 22:49:00,76.0,73.0,29.95,SSE,153,1.0,6.0,90,0.00,,,0.00,,2013-06-08 02:49:00,
2013-06-07 22:54:00,75.0,72.0,29.95,SSW,204,0.0,5.0,90,0.00,,,0.00,,2013-06-08 02:54:00,
2013-06-07 23:11:00,75.0,72.0,29.95,SW,235,1.0,3.0,90,0.00,,,0.00,,2013-06-08 03:11:00,
2013-06-07 23:19:00,75.0,72.0,29.95,SW,235,1.0,3.0,90,0.00,,,0.00,,2013-06-08 03:19:00,
2013-06-07 23:27:00,75.0,72.0,29.95,West,259,2.0,5.0,91,0.00,,,0.00,,2013-06-08 03:27:00,
2013-06-07 23:38:00,75.0,73.0,29.96,WSW,240,2.0,5.0,92,0.00,,,0.00,,2013-06-08 03:38:00,
2013-06-07 23:52:00,75.0,73.0,29.96,WSW,240,2.0,5.0,92,0.00,,,0.00,,2013-06-08 03:52:00,